Weather History for McGuire AFB, NJ

Change the Weather History Date:

Friday, April 5, 2013

  Actual Average Record
Temperature  
Mean Temperature 50 °F -  
Max Temperature 64 °F 56 °F 66 °F (2001)
Min Temperature 37 °F 36 °F 28 °F (2002)
Degree Days  
Heating Degree Days 15    
Moisture  
Dew Point 32 °F    
Average Humidity 73    
Maximum Humidity 100    
Minimum Humidity 20    
Precipitation  
Precipitation 0.07 in - - ()
Sea Level Pressure  
Sea Level Pressure 29.93 in    
Wind  
Wind Speed 5 mph (WSW)    
Max Wind Speed 16 mph    
Max Gust Speed 24 mph    
Visibility 10 miles    
Events Rain    
Averages and records for this station are not official NWS values.
T = Trace of Precipitation, MM = Missing Value Source: NWS Daily Summary

Daily Weather History Graph

Daily Weather History Graph

Search for Another Location

Airport:

Trip Planner

Search our weather history database for the weather conditions in past years. The results will help you decide how hot, cold, wet, or windy it might be!

Date:

Astronomy

Apr. 05, 2013 Rise Set
Actual Time 6:35 AM EDT 7:26 PM EDT
Civil Twilight 6:08 AM EDT 7:54 PM EDT
Nautical Twilight 5:35 AM EDT 8:27 PM EDT
Astronomical Twilight 5:01 AM EDT 9:01 PM EDT
Moon 3:41 AM EDT (4/5) 2:48 PM EDT (4/5)
Length of Visible Light 13h 46m
Length of Day
12h 51m
Waning Crescent, 24% of the Moon is Illuminated
Apr 5
Waning Crescent
Apr 10
New
Apr 18
First Quarter
Apr 25
Full
May 2
Last Quarter

Hourly Weather History & Observations

Time (EDT) Temp. Windchill Dew Point Humidity Pressure Visibility Wind Dir Wind Speed Gust Speed Precip Events Conditions
12:55 AM 39.2 °F 34.2 °F 28.2 °F 65% 30.09 in 10.0 mi SSW 6.9 mph - N/A   Mostly Cloudy
1:55 AM 39.7 °F 35.6 °F 29.1 °F 66% 30.04 in 10.0 mi South 5.8 mph - N/A   Overcast
2:29 AM 39.2 °F 34.2 °F 30.2 °F 70% 30.04 in 10.0 mi South 6.9 mph - N/A   Overcast
2:55 AM 38.3 °F 34.8 °F 32.7 °F 80% 30.02 in 10.0 mi South 4.6 mph - 0.00 in Rain Light Rain
3:00 AM 37.4 °F 33.8 °F 33.8 °F 87% 30.02 in 10.0 mi South 4.6 mph - N/A   Overcast
3:01 AM 37.4 °F 32.8 °F 33.8 °F 87% 30.02 in 10.0 mi South 5.8 mph - N/A Rain Light Rain
3:02 AM 37.4 °F 32.8 °F 33.8 °F 87% 30.02 in 10.0 mi South 5.8 mph - N/A   Overcast
3:07 AM 37.4 °F 32.1 °F 33.8 °F 87% 30.02 in 10.0 mi SSW 6.9 mph - N/A Rain Light Rain
3:11 AM 37.4 °F 32.8 °F 33.8 °F 87% 30.01 in 10.0 mi South 5.8 mph - N/A   Overcast
3:16 AM 37.4 °F 32.8 °F 33.8 °F 87% 30.01 in 10.0 mi South 5.8 mph - N/A Rain Light Rain
3:17 AM 37.4 °F 33.8 °F 33.8 °F 87% 30.01 in 10.0 mi South 4.6 mph - N/A   Overcast
3:23 AM 37.4 °F 34.9 °F 33.8 °F 87% 30.00 in 10.0 mi South 3.5 mph - N/A Rain Light Rain
3:33 AM 37.4 °F 34.9 °F 33.8 °F 87% 29.99 in 10.0 mi SSE 3.5 mph - N/A   Overcast
3:36 AM 37.4 °F - 33.8 °F 87% 29.99 in 10.0 mi Calm Calm - N/A Rain Light Rain
3:45 AM 37.4 °F 34.9 °F 35.6 °F 93% 29.99 in 10.0 mi South 3.5 mph - N/A   Overcast
3:54 AM 37.4 °F 34.9 °F 35.6 °F 93% 29.98 in 10.0 mi SSE 3.5 mph - N/A Rain Light Rain
3:55 AM 37.6 °F 35.1 °F 35.2 °F 91% 29.98 in 10.0 mi SSE 3.5 mph - 0.00 in Rain Light Rain
4:22 AM 37.4 °F - 35.6 °F 93% 29.96 in 10.0 mi Calm Calm - N/A   Overcast
4:25 AM 37.4 °F - 35.6 °F 93% 29.96 in 10.0 mi Calm Calm - N/A   Overcast
4:30 AM 37.4 °F - 35.6 °F 93% 29.96 in 10.0 mi Calm Calm - N/A   Overcast
4:35 AM 37.4 °F - 35.6 °F 93% 29.96 in 10.0 mi Calm Calm - N/A Rain Light Rain
4:55 AM 37.2 °F - 35.2 °F 93% 29.96 in 10.0 mi Calm Calm - 0.00 in Rain Light Rain
4:57 AM 37.4 °F - 35.6 °F 93% 29.96 in 10.0 mi Calm Calm - N/A   Overcast
5:12 AM 37.4 °F - 35.6 °F 93% 29.96 in 10.0 mi Calm Calm - N/A Rain Light Rain
5:53 AM 37.4 °F - 35.6 °F 93% 29.95 in 9.0 mi Calm Calm - N/A Rain Light Rain
5:55 AM 37.2 °F - 36.1 °F 96% 29.95 in 9.0 mi Calm Calm - 0.03 in Rain Light Rain
5:57 AM 37.4 °F - 35.6 °F 93% 29.95 in 9.0 mi Calm Calm - N/A Rain Light Rain
5:58 AM 37.4 °F - 35.6 °F 93% 29.95 in 9.0 mi Calm Calm - N/A Rain Light Rain
6:55 AM 37.4 °F 34.9 °F 36.7 °F 97% 29.93 in 10.0 mi SE 3.5 mph - 0.03 in Rain Light Rain
6:56 AM 37.4 °F - 37.4 °F 100% 29.93 in 10.0 mi Calm Calm - N/A   Overcast
7:32 AM 37.4 °F - 35.6 °F 93% 29.91 in 10.0 mi Calm Calm - N/A   Overcast
7:51 AM 37.4 °F - 37.4 °F 100% 29.91 in 10.0 mi Calm Calm - N/A   Overcast
7:55 AM 37.6 °F - 36.5 °F 96% 29.91 in 10.0 mi Calm Calm - N/A   Mostly Cloudy
8:35 AM 39.2 °F 35.9 °F 37.4 °F 93% 29.91 in 10.0 mi NNW 4.6 mph - N/A   Overcast
8:55 AM 39.7 °F 34.9 °F 37.8 °F 93% 29.89 in 10.0 mi NNW 6.9 mph - N/A   Overcast
9:55 AM 44.1 °F 40.8 °F 39.2 °F 83% 29.87 in 10.0 mi NNW 5.8 mph - N/A   Scattered Clouds
10:55 AM 47.8 °F - 34.9 °F 61% 29.85 in 10.0 mi Variable 4.6 mph - N/A   Mostly Cloudy
11:55 AM 52.3 °F - 32.4 °F 47% 29.83 in 10.0 mi NNW 8.1 mph - 0.01 in   Clear
12:55 PM 56.3 °F - 28.4 °F 34% 29.79 in 10.0 mi NNW 6.9 mph - N/A   Clear
1:55 PM 59.4 °F - 23.0 °F 25% 29.77 in 10.0 mi West 11.5 mph 18.4 mph N/A   Clear
2:55 PM 61.3 °F - 20.7 °F 21% 29.74 in 10.0 mi WNW 11.5 mph 21.9 mph N/A   Clear
3:55 PM 63.3 °F - 21.4 °F 20% 29.72 in 10.0 mi NNW 15.0 mph 20.7 mph N/A   Clear
4:55 PM 63.5 °F - 23.2 °F 21% 29.73 in 10.0 mi NW 13.8 mph 23.0 mph N/A   Clear
5:55 PM 62.1 °F - 23.4 °F 23% 29.76 in 10.0 mi WNW 12.7 mph - N/A   Clear
6:55 PM 57.7 °F - 23.2 °F 26% 29.80 in 10.0 mi North 11.5 mph - N/A   Clear
7:55 PM 50.9 °F - 24.3 °F 35% 29.83 in 10.0 mi NNW 9.2 mph - N/A   Clear
8:55 PM 49.8 °F - 22.1 °F 34% 29.87 in 10.0 mi NW 4.6 mph - N/A   Clear
9:55 PM 50.0 °F - 22.1 °F 33% 29.92 in 10.0 mi North 13.8 mph 24.2 mph N/A   Clear
10:55 PM 47.1 °F - 23.0 °F 39% 29.95 in 10.0 mi NNW 13.8 mph - N/A   Clear
11:55 PM 44.2 °F 37.0 °F 21.7 °F 41% 29.99 in 10.0 mi NW 16.1 mph - N/A   Clear